2023-117E (57584 NORAD) Tracking and Keplerian Element Data

This shows tracking and keplerian element data for the satellite.

Feedback or suggestion? Click here.




ElementValue
Catalog57584
Name2023-117E
Epoch Orbit255
Epoch Day239.16391762
Epoch Year2023
RAAN310.7769
Inclination97.5233
Eccentricity0.0011537
Argument of Perigee230.3585
Mean Anonmoly129.6627
Mean Motion15.11342055
Decay Rate0.00010483
L11 57584U 23117E 23239.16391762 .00010483 00000+0 62419-3 0 9997
L22 57584 97.5233 310.7769 0011537 230.3585 129.6627 15.11342055 2558



Live tracking and technical data element details for 2023-117E (NORAD 57584). 2023-117E can be tracked NOW for your location showing map with azimuth and elevation plus other details from your city location.







IsCatalogInMostPopularTable: catalog: 57584, numindb: 6
Update: records affected: 1



GetName: 57584 2023-117E

Hit Count: updated at: Tue, 26 Sep 2023 11:54:26 GMT